THOR ABLESTAR DEB, 2432

Orbit data source: Space-Track

THOR ABLESTAR DEB, 2432 is space debris in LEO originally from a launch on Thu, 05 Dec 1963 UTC launched from the Air Force Western Test Range (AFWTR). Debris objects in space refer to the collection of defunct objects orbiting the Earth. Examples of debris include non-operational satellites, rocket bodies, and fragments generated from explosions, collisions, or faulty payload assembly.

Loading next visibility...
Identifier
2432, 1963-049G
Orbit
LEO
Last TLE update
21 hours ago
Origin
Manufacturer
Unknown
Mission
Spacecraft
Bus & Motor
Unknown
Mass
Unknown
Launch date (UTC)
1963-12-05 (61 years ago)
Launch vehicle
Unknown
Launch site
Air Force Western Test Range (AFWTR)
Object type
Payload
Rocket body
Debris
Shape & HBR
Unknown
Radar Cross Section
Medium (>0.1 m² and <1 m²)

Expand to show TLE details & history

TLE from 21 hours ago
0 THOR ABLESTAR DEB
1 02432U 63049G   25128.35970780  .00000117  00000-0  17388-3 0  9999
2 02432  89.9184  73.9757 0033030 323.8878 150.4478 13.48181711 18157
Epoch: 2025-05-08T08:37Z
Definitive object data (Epoch: 2025-05-08T08:37:58.753Z)
Latitude
65.55857°
Longitude
-102.12906°
Altitude
1,111.816 km
Speed
7.292 km/s
True Right ascension
16h 55m 11s
True Declination
65° 26' 06"
Sunlit
Object was in daylight at TLE epoch
Visualization TLE readout
Latitude
57.15603°
Longitude
-102.08351°
Altitude
1,111.99 km
Speed
7.29 km/s
Apparent Right ascension
22h 29m 11s
Apparent Declination
34° 15' 19"
Sunlit
Object is in daylight
Visualization observer readout
Local Sidereal Time
14:11:45
Azimuth
43.026° NE
Elevation
0.195°
Doppler factor
1
Orbital elements
Apogee altitude
1,100.629 km
Perigee altitude
1,051.387 km
Semi-major axis
7,454.145 km
Eccentricity
0.003303
Inclination
89.9184°
RAAN
73.9757°
Arg. of periapsis
323.8878°
True anomaly
150.63381°
Mean anomaly
150.4478°
Eccentric anomaly
150.54087°
Mean motion
3.37246 °/min
BSTAR
0.00017388
Orbital period
106.75 mins
Loading maneuver chart data...
Loading SW <> Apogee altitude chart data...
Loading historical data...
Loading historical data...
Loading historical data...
Loading historical data...
Loading historical data...
Loading historical data...
Loading historical data...

THOR ABLESTAR DEB Visibility forecast

Observer location: undefined°, undefined°

Span
Click to sort rows by Start time (UTC) header in descending order
Start Az.
Max El. time (UTC)
Max El. Az.
Max El.
End time (UTC)
End Az.
12 mins2025-05-09 07:48:59.076Z19.296° NNE2025-05-09 07:54:59.076Z85.902° E31.474°2025-05-09 08:00:59.076Z150.677° SSE
10 mins2025-05-09 09:36:59.076Z337.051° NNW2025-05-09 09:40:59.076Z290.319° WNW29.919°2025-05-09 09:46:59.076Z221.298° SW
10 mins2025-05-09 19:48:59.076Z136.709° SSE2025-05-09 19:53:59.076Z71.507° E30.989°2025-05-09 19:58:59.076Z16.955° NNE
10 mins2025-05-09 21:35:59.076Z221.286° SW2025-05-09 21:39:59.076Z271.802° WNW29.583°2025-05-09 21:45:59.076Z339.164° N
|